CDT,Max TemperatureF,Mean TemperatureF,Min TemperatureF,Max Dew PointF,MeanDew PointF,Min DewpointF,Max Humidity, Mean Humidity, Min Humidity, Max Sea Level PressureIn, Mean Sea Level PressureIn, Min Sea Level PressureIn, Max VisibilityMiles, Mean VisibilityMiles, Min VisibilityMiles, Max Wind SpeedMPH, Mean Wind SpeedMPH, Max Gust SpeedMPH,PrecipitationIn, CloudCover, Events, WindDirDegrees
2013-10-1,79,66,52,60,57,51,100,76,52,29.97,29.87,29.83,10,10,9,16,6,22,0.00,0,,212
2013-10-2,76,60,43,55,47,37,100,63,25,30.12,30.04,29.98,10,5,0,12,4,15,0.00,1,Fog,130
2013-10-3,76,66,55,67,60,42,93,73,53,29.96,29.89,29.82,10,9,7,16,6,22,T,6,Thunderstorm,163
2013-10-4,68,65,61,65,63,60,100,94,87,30.01,29.93,29.86,10,6,0,16,6,20,0.61,7,Fog-Rain-Thunderstorm,99
2013-10-5,74,65,56,70,64,51,100,88,75,29.94,29.85,29.75,10,4,0,13,6,18,0.15,7,Fog-Rain,142
2013-10-6,58,51,43,44,41,37,93,72,51,29.78,29.74,29.68,10,10,10,12,4,18,0.03,6,Rain,237
2013-10-7,67,55,42,46,44,41,100,70,40,30.10,29.89,29.74,10,10,5,13,4,21,0.01,3,Rain,299
2013-10-8,75,57,39,49,44,38,100,66,31,30.16,30.12,30.08,10,10,10,18,5,23,0.00,0,,186
2013-10-9,72,58,44,49,46,40,86,59,31,30.22,30.17,30.12,10,10,10,15,5,29,0.00,0,,174
2013-10-10,73,57,40,50,45,39,100,69,38,30.18,30.12,30.04,10,8,2,14,4,23,0.00,0,,169
2013-10-11,75,61,46,58,51,45,100,77,53,30.05,29.99,29.91,10,7,2,24,9,30,0.00,2,,159
2013-10-12,69,56,43,59,50,39,90,65,39,30.17,29.97,29.88,10,10,7,14,7,22,0.04,3,Rain-Thunderstorm,199
2013-10-13,62,49,36,41,37,33,92,64,36,30.44,30.35,30.19,10,10,10,14,3,36,0.00,0,,318
2013-10-14,63,48,32,43,39,32,100,73,46,30.44,30.34,30.12,10,10,10,18,7,21,0.00,1,,116
2013-10-15,61,55,48,57,49,42,100,83,66,30.10,29.85,29.73,10,7,2,16,10,24,0.23,7,Rain,182
2013-10-16,55,51,47,49,46,43,93,84,74,29.95,29.86,29.78,10,10,2,13,5,17,0.03,8,Rain,286
2013-10-17,54,47,39,45,42,36,93,72,50,29.93,29.87,29.81,10,7,2,8,1,14,0.09,6,Rain,352
2013-10-18,48,43,38,42,38,35,92,79,65,29.96,29.89,29.80,10,10,10,15,4,23,0.00,6,,261
2013-10-19,52,42,32,40,35,30,96,70,44,29.91,29.82,29.73,10,10,8,21,4,33,0.03,4,Rain,230
2013-10-20,51,41,30,46,38,28,96,85,74,29.88,29.80,29.71,10,9,4,17,6,20,0.09,5,Rain,188
2013-10-21,48,40,32,42,30,22,82,66,50,29.98,29.90,29.76,10,10,10,17,6,24,T,7,,289
2013-10-22,47,37,27,28,25,22,78,62,45,30.00,29.97,29.92,10,10,10,12,4,15,0.00,3,,315
2013-10-23,43,35,27,28,26,21,92,68,43,30.05,30.01,29.97,10,10,9,12,5,18,T,5,,299
2013-10-24,44,37,29,27,24,22,78,61,43,30.32,30.19,30.05,10,10,10,16,6,21,T,5,,307
2013-10-25,51,40,29,29,26,23,85,62,38,30.38,30.22,29.92,10,10,10,20,8,33,0.00,3,,238
2013-10-26,52,45,37,35,29,25,67,55,42,30.09,29.94,29.79,10,10,10,21,8,33,0.00,4,,294
2013-10-27,54,41,27,31,28,25,92,65,38,30.07,30.00,29.91,10,10,10,15,4,22,0.00,0,,218
2013-10-28,44,39,34,34,30,27,89,73,57,30.44,30.32,30.08,10,10,10,21,11,26,0.00,6,,44
2013-10-29,52,45,37,42,35,28,89,76,63,30.43,30.30,30.14,10,10,7,13,7,,0.00,5,,97
2013-10-30,56,51,46,55,48,41,100,91,82,30.13,29.99,29.74,10,4,1,17,6,,0.01,7,,139
2013-10-31,62,53,43,61,56,39,100,92,83,29.73,29.45,29.28,10,6,1,16,7,24,0.57,8,Rain,221